Regional Weather Roundup
Issued by NWS

Home | Current Version | Previous Version | Graphics & Text | Print | Product List | Glossary On
Versions: 1 2 3 4 5 6 7 8 9 10 11 12 13 14 15 16 17 18 19 20 21 22 23 24 25 26 27 28 29 30 31 32 33 34 35 36 37 38 39 40 41 42 43 44 45 46 47 48 49 50
530
ASUS45 KCYS 232110
RWRWY

WYOMING REGIONAL WEATHER ROUNDUP
NATIONAL WEATHER SERVICE CHEYENNE WY
300 PM MDT THU MAR 23 2017

NOTE:  "FAIR" INDICATES FEW OR NO CLOUDS BELOW 12,000 FEET
WITH NO SIGNIFICANT WEATHER AND/OR OBSTRUCTIONS TO VISIBILITY.

WYZ001-232200-
YELLOWSTONE NATIONAL PARK

CITY           SKY/WX    TMP DP  RH WIND       PRES   REMARKS
LK YELLOWSTONE   N/A     39  22  50 VRB6      29.86R WCI  35
W YELLOWSTONE  NOT AVBL

$$
WYZ002>013-054>058-071-098>099-232200-
NORTHERN WYOMING

CITY           SKY/WX    TMP DP  RH WIND       PRES   REMARKS
JACKSON        CLOUDY    43  28  56 NW9       29.81R
CODY           CLOUDY    44  34  67 NW12      29.85R
GREYBULL       CLOUDY    48  35  60 N25       29.75R
WORLAND        LGT RAIN  43  40  89 NW23G31   29.76R
SHERIDAN       LGT RAIN  44  40  85 W17       29.83R
BUFFALO        LGT RAIN  40  35  83 NW21G28   29.82R WCI  30
GILLETTE       LGT RAIN  40 N/A N/A N22       29.76R WCI  30
HULETT         LGT RAIN  37  37 100 N14G21    29.78R WCI  29
NEWCASTLE      FAIR      59  36  41 NW17G28   29.66R

$$
WYZ014>020-022>026-101>103-232200-
CENTRAL WYOMING

CITY           SKY/WX    TMP DP  RH WIND       PRES   REMARKS
BIG PINEY      LGT SNOW  34  33  96 N17G23    29.79R FOG     WCI  23
PINEDALE       MIX PCPN  34  34 100 NW14      29.79S WCI  24
DUBOIS         CLOUDY    34  30  86 W8        29.79S WCI  27
LANDER         LGT RAIN  40  38  93 NW6       29.78R
RIVERTON       LGT RAIN  38  36  92 W8        29.79R WCI  32
CASPER         CLOUDY    42  37  82 N22       29.74R
DOUGLAS        TSTM      50  43  77 NW20G30   29.68R

$$
WYZ021-027>030-104>119-232200-
SOUTHERN WYOMING

CITY           SKY/WX    TMP DP  RH WIND       PRES   REMARKS
EVANSTON       LGT SNOW  33  31  92 W14       29.83R VSB 3/4 WCI  23
KEMMERER       SNOW      32  32 100 W10       29.80R VSB 1/4 WCI  24
FORT BRIDGER   CLOUDY    39  38  97 W17G24    29.82R WCI  29
ROCK SPRINGS   CLOUDY    47  36  65 SW9       29.75R
DIXON            N/A     59  26  28 SW15G24   29.72S
RAWLINS        PTSUNNY   54  29  38 W20G28    29.70R
SARATOGA       FAIR      54  23  30 MISG      29.71R
LARAMIE        FAIR      58  11  15 SW17G31   29.66F
CHEYENNE       FAIR      64  14  14 NW6       29.61F
TORRINGTON     FAIR      68  28  22 CALM      29.56F
PINE BLUFFS    FAIR      72  12  10 SW14      29.58F

$$




USA.gov is the U.S. government's official web portal to all federal, state and local government web resources and services.